Location: The Saddle
(36.8333°N, 80.3417°W)
Time: 10:04:37
(UTC-05:00)

S-56A Canister/Altair - Pass Details

Date: 14 December 2023
Orbit: 640 x 2488 km, 38.9° (Epoch: 25 February)

Event Time Altitude Azimuth Distance (km) Brightness Sun altitude
Rises 13:34:56 0° 285° (WNW) 3,120 10.7 27.1°
Reaches altitude 10° 13:37:27 10° 281° (W) 2,096 10.0 26.9°
Maximum altitude 13:41:56 55° 204° (SSW) 766 8.9 26.6°
Drops below altitude 10° 13:46:25 10° 126° (SE) 2,094 10.0 26.3°
Sets 13:48:56 0° 122° (ESE) 3,116 10.8 26.1°
